| time (UTC) | temp F | wind direction | speed MPH | gust MPH | rain 1hr in | rain 24hr in | rain mn in | humidity % | barometer mb |
| 20260831105332 | 78 | 255 | 3.0 | 7.0 | 0.00 | 0.00 | 0.00 | 67 | 1012.4 |
| 20260831104319 | 78 | 229 | 4.0 | 7.0 | 0.00 | 0.00 | 0.00 | 67 | 1012.1 |
| 20260831103339 | 78 | 212 | 5.0 | 10.0 | 0.00 | 0.00 | 0.00 | 67 | 1012.0 |
| 20260831102320 | 78 | 227 | 4.0 | 7.0 | 0.00 | 0.00 | 0.00 | 67 | 1012.0 |
| 20260831101323 | 78 | 207 | 3.0 | 9.0 | 0.00 | 0.00 | 0.00 | 68 | 1011.9 |
| 20260831100321 | 78 | 190 | 5.0 | 8.0 | 0.00 | 0.00 | 0.00 | 68 | 1011.8 |
| 20260831095327 | 78 | 205 | 3.0 | 8.0 | 0.00 | 0.00 | 0.00 | 68 | 1011.8 |
| 20260831094321 | 78 | 195 | 3.0 | 7.0 | 0.00 | 0.00 | 0.00 | 68 | 1011.9 |
| 20260831093341 | 78 | 187 | 3.0 | 6.0 | 0.00 | 0.00 | 0.00 | 68 | 1011.8 |
| 20260831092327 | 78 | 228 | 4.0 | 8.0 | 0.00 | 0.00 | 0.00 | 67 | 1011.9 |
| 20260831091323 | 78 | 195 | 3.0 | 8.0 | 0.00 | 0.00 | 0.00 | 67 | 1011.8 |
| 20260831090341 | 78 | 205 | 4.0 | 7.0 | 0.00 | 0.00 | 0.00 | 67 | 1011.8 |
| 20260831085322 | 78 | 191 | 3.0 | 7.0 | 0.00 | 0.00 | 0.00 | 67 | 1011.7 |
| 20260831084326 | 79 | 202 | 2.0 | 7.0 | 0.00 | 0.00 | 0.00 | 67 | 1011.7 |
| 20260831083324 | 79 | 232 | 3.0 | 5.0 | 0.00 | 0.00 | 0.00 | 66 | 1011.7 |
| 20260831082331 | 79 | 207 | 3.0 | 6.0 | 0.00 | 0.00 | 0.00 | 66 | 1011.7 |
| 20260831081318 | 79 | 210 | 3.0 | 6.0 | 0.00 | 0.00 | 0.00 | 66 | 1011.8 |
| 20260831080338 | 79 | 218 | 3.0 | 5.0 | 0.00 | 0.00 | 0.00 | 66 | 1011.8 |
| 20260831075321 | 79 | 203 | 3.0 | 7.0 | 0.00 | 0.00 | 0.00 | 66 | 1011.9 |
| 20260831074325 | 80 | 225 | 3.0 | 5.0 | 0.00 | 0.00 | 0.00 | 65 | 1012.0 |
| 20260831073342 | 80 | 225 | 3.0 | 6.0 | 0.00 | 0.00 | 0.00 | 65 | 1012.0 |
| 20260831072322 | 80 | 210 | 3.0 | 8.0 | 0.00 | 0.00 | 0.00 | 65 | 1011.9 |
| 20260831071320 | 80 | 226 | 4.0 | 9.0 | 0.00 | 0.00 | 0.00 | 65 | 1011.8 |
| 20260831070319 | 80 | 220 | 5.0 | 8.0 | 0.00 | 0.00 | 0.00 | 65 | 1011.8 |
| 20260831065453 | 80 | 211 | 4.0 | 8.0 | 0.00 | 0.00 | 0.00 | 66 | 1011.7 |
| 20260831064318 | 79 | 215 | 4.0 | 8.0 | 0.00 | 0.00 | 0.00 | 67 | 1011.7 |
| 20260831063317 | 79 | 211 | 2.0 | 6.0 | 0.00 | 0.00 | 0.00 | 68 | 1011.6 |
| 20260831062343 | 78 | 207 | 2.0 | 8.0 | 0.00 | 0.00 | 0.00 | 69 | 1011.6 |
| 20260831061327 | 79 | 204 | 1.0 | 6.0 | 0.00 | 0.00 | 0.00 | 69 | 1011.6 |
| 20260831060326 | 79 | 183 | 2.0 | 5.0 | 0.00 | 0.00 | 0.00 | 69 | 1011.5 |
| 20260831055332 | 79 | 190 | 2.0 | 5.0 | 0.00 | 0.00 | 0.00 | 69 | 1011.5 |
| 20260831054341 | 79 | 191 | 2.0 | 6.0 | 0.00 | 0.00 | 0.00 | 68 | 1011.4 |
| 20260831054222 | 80 | 198 | 2.0 | 6.0 | 0.00 | 0.00 | 0.00 | 68 | 1011.3 |
| 20260831051321 | 80 | 203 | 2.0 | 6.0 | 0.00 | 0.00 | 0.00 | 67 | 1011.2 |
| 20260831050338 | 80 | 153 | 2.0 | 6.0 | 0.00 | 0.00 | 0.00 | 67 | 1011.2 |
| 20260831045355 | 81 | 200 | 1.0 | 6.0 | 0.00 | 0.00 | 0.00 | 67 | 1011.2 |
| 20260831044323 | 81 | 197 | 2.0 | 5.0 | 0.00 | 0.00 | 0.00 | 66 | 1011.1 |
| 20260831043341 | 81 | 211 | 3.0 | 7.0 | 0.00 | 0.00 | 0.00 | 65 | 1011.2 |
| 20260831042321 | 82 | 208 | 3.0 | 7.0 | 0.00 | 0.00 | 0.00 | 65 | 1011.2 |
| 20260831041351 | 82 | 200 | 2.0 | 6.0 | 0.00 | 0.00 | 0.00 | 65 | 1011.3 |
| 20260831040328 | 82 | 204 | 4.0 | 7.0 | 0.00 | 0.00 | 0.00 | 64 | 1011.3 |
| 20260831035315 | 83 | 176 | 4.0 | 8.0 | 0.00 | 0.00 | 0.00 | 64 | 1011.2 |
| 20260831034322 | 83 | 198 | 3.0 | 8.0 | 0.00 | 0.00 | 0.00 | 64 | 1011.2 |
| 20260831033341 | 83 | 132 | 5.0 | 8.0 | 0.00 | 0.00 | 0.00 | 64 | 1011.1 |
| 20260831032322 | 83 | 170 | 4.0 | 8.0 | 0.00 | 0.00 | 0.00 | 65 | 1011.0 |
| 20260831031329 | 84 | 150 | 4.0 | 10.0 | 0.00 | 0.00 | 0.00 | 65 | 1010.9 |
| 20260831030337 | 84 | 194 | 2.0 | 6.0 | 0.00 | 0.00 | 0.00 | 65 | 1010.9 |
| 20260831025321 | 84 | 202 | 3.0 | 9.0 | 0.00 | 0.00 | 0.00 | 64 | 1010.8 |
| 20260831024322 | 84 | 141 | 3.0 | 8.0 | 0.00 | 0.00 | 0.00 | 64 | 1010.9 |
| 20260831023340 | 84 | 195 | 4.0 | 8.0 | 0.00 | 0.00 | 0.00 | 65 | 1010.8 |
| 20260831022324 | 85 | 159 | 3.0 | 7.0 | 0.00 | 0.00 | 0.00 | 65 | 1010.7 |
| 20260831021330 | 85 | 129 | 3.0 | 7.0 | 0.00 | 0.00 | 0.00 | 65 | 1010.6 |
| 20260831020350 | 85 | 167 | 2.0 | 6.0 | 0.00 | 0.00 | 0.00 | 65 | 1010.7 |
| 20260831015316 | 86 | 91 | 2.0 | 9.0 | 0.00 | 0.00 | 0.00 | 65 | 1010.5 |
| 20260831014322 | 86 | 121 | 2.0 | 6.0 | 0.00 | 0.00 | 0.00 | 64 | 1010.4 |
| 20260831013339 | 87 | 72 | 2.0 | 5.0 | 0.00 | 0.00 | 0.00 | 64 | 1010.3 |
| 20260831012322 | 87 | 151 | 2.0 | 5.0 | 0.00 | 0.00 | 0.00 | 64 | 1010.3 |
| 20260831011326 | 88 | 124 | 3.0 | 7.0 | 0.00 | 0.00 | 0.00 | 63 | 1010.2 |
| 20260831010324 | 88 | 117 | 3.0 | 6.0 | 0.00 | 0.00 | 0.00 | 62 | 1010.2 |
| 20260831005325 | 89 | 120 | 3.0 | 7.0 | 0.00 | 0.00 | 0.00 | 62 | 1010.1 |
| 20260831004334 | 89 | 129 | 2.0 | 7.0 | 0.00 | 0.00 | 0.00 | 60 | 1010.1 |
| 20260831003954 | 90 | 143 | 2.0 | 7.0 | 0.00 | 0.00 | 0.00 | 59 | 1010.1 |
| 20260831002328 | 90 | 165 | 2.0 | 6.0 | 0.00 | 0.00 | 0.00 | 59 | 1010.1 |
| 20260831001320 | 91 | 152 | 2.0 | 8.0 | 0.00 | 0.00 | 0.00 | 58 | 1010.1 |
| 20260831000340 | 93 | 194 | 2.0 | 4.0 | 0.00 | 0.00 | 0.00 | 55 | 1010.1 |
| 20260830235326 | 95 | 190 | 3.0 | 7.0 | 0.00 | 0.00 | 0.00 | 52 | 1010.2 |
| 20260830234331 | 96 | 189 | 3.0 | 7.0 | 0.00 | 0.00 | 0.00 | 52 | 1010.2 |
| 20260830233455 | 95 | 201 | 3.0 | 8.0 | 0.00 | 0.00 | 0.00 | 53 | 1010.2 |
| 20260830231328 | 96 | 197 | 3.0 | 9.0 | 0.00 | 0.00 | 0.00 | 51 | 1010.3 |
| 20260830230454 | 97 | 194 | 4.0 | 9.0 | 0.00 | 0.00 | 0.00 | 51 | 1010.1 |
| 20260830225725 | 96 | 163 | 3.0 | 12.0 | 0.00 | 0.00 | 0.00 | 53 | 1010.0 |
| 20260830223455 | 95 | 131 | 3.0 | 7.0 | 0.00 | 0.00 | 0.00 | 54 | 1010.1 |
| 20260830222317 | 95 | 189 | 4.0 | 10.0 | 0.00 | 0.00 | 0.00 | 54 | 1010.2 |
| 20260830221322 | 95 | 196 | 6.0 | 14.0 | 0.00 | 0.00 | 0.00 | 52 | 1010.2 |
| 20260830220318 | 96 | 153 | 4.0 | 9.0 | 0.00 | 0.00 | 0.00 | 52 | 1010.3 |
| 20260830215325 | 97 | 121 | 5.0 | 11.0 | 0.00 | 0.00 | 0.00 | 51 | 1010.4 |
| 20260830214331 | 98 | 159 | 7.0 | 12.0 | 0.00 | 0.00 | 0.00 | 51 | 1010.4 |
| 20260830213328 | 97 | 183 | 6.0 | 16.0 | 0.00 | 0.00 | 0.00 | 50 | 1010.5 |
| 20260830212724 | 97 | 215 | 7.0 | 10.0 | 0.00 | 0.00 | 0.00 | 51 | 1010.5 |
| 20260830211320 | 96 | 218 | 4.0 | 13.0 | 0.00 | 0.00 | 0.00 | 52 | 1010.6 |
| 20260830210319 | 97 | 174 | 7.0 | 16.0 | 0.00 | 0.00 | 0.00 | 50 | 1010.5 |
| 20260830205345 | 97 | 221 | 7.0 | 12.0 | 0.00 | 0.00 | 0.00 | 49 | 1010.6 |
| 20260830204327 | 97 | 194 | 6.0 | 12.0 | 0.00 | 0.00 | 0.00 | 49 | 1010.6 |
| 20260830203326 | 97 | 208 | 9.0 | 16.0 | 0.00 | 0.00 | 0.00 | 49 | 1010.7 |
| 20260830202334 | 97 | 190 | 6.0 | 12.0 | 0.00 | 0.00 | 0.00 | 51 | 1010.7 |
| 20260830201321 | 96 | 172 | 5.0 | 12.0 | 0.00 | 0.00 | 0.00 | 51 | 1010.7 |
| 20260830200341 | 96 | 226 | 6.0 | 14.0 | 0.00 | 0.00 | 0.00 | 51 | 1010.7 |
| 20260830195321 | 96 | 188 | 7.0 | 14.0 | 0.00 | 0.00 | 0.00 | 52 | 1010.9 |
| 20260830194325 | 96 | 155 | 9.0 | 13.0 | 0.00 | 0.00 | 0.00 | 50 | 1011.0 |
| 20260830193322 | 95 | 162 | 6.0 | 13.0 | 0.00 | 0.00 | 0.00 | 51 | 1011.2 |
| 20260830192455 | 94 | 201 | 7.0 | 12.0 | 0.00 | 0.00 | 0.00 | 53 | 1011.3 |
| 20260830190455 | 94 | 194 | 6.0 | 13.0 | 0.00 | 0.00 | 0.00 | 53 | 1011.4 |
| 20260830185336 | 93 | 238 | 7.0 | 13.0 | 0.00 | 0.00 | 0.00 | 55 | 1011.5 |
| 20260830184321 | 91 | 205 | 7.0 | 13.0 | 0.00 | 0.00 | 0.00 | 57 | 1011.6 |
| 20260830183339 | 91 | 221 | 5.0 | 11.0 | 0.00 | 0.00 | 0.00 | 55 | 1011.7 |
| 20260830182320 | 93 | 205 | 8.0 | 13.0 | 0.00 | 0.00 | 0.00 | 52 | 1011.7 |
| 20260830181343 | 94 | 235 | 7.0 | 12.0 | 0.00 | 0.00 | 0.00 | 51 | 1011.7 |
| 20260830180339 | 94 | 215 | 6.0 | 14.0 | 0.00 | 0.00 | 0.00 | 52 | 1011.8 |
| 20260830175319 | 94 | 169 | 6.0 | 11.0 | 0.00 | 0.00 | 0.00 | 54 | 1011.8 |
| 20260830174725 | 93 | 226 | 6.0 | 11.0 | 0.00 | 0.00 | 0.00 | 55 | 1011.9 |
| 20260830173726 | 92 | 186 | 5.0 | 11.0 | 0.00 | 0.00 | 0.00 | 56 | 1012.2 |
| 20260830171325 | 91 | 183 | 6.0 | 14.0 | 0.00 | 0.00 | 0.00 | 55 | 1012.3 |
| 20260830170321 | 90 | 183 | 7.0 | 13.0 | 0.00 | 0.00 | 0.00 | 56 | 1012.3 |
| 20260830165329 | 90 | 194 | 7.0 | 11.0 | 0.00 | 0.00 | 0.00 | 55 | 1012.4 |
| 20260830164317 | 91 | 191 | 6.0 | 11.0 | 0.00 | 0.00 | 0.00 | 56 | 1012.4 |
| 20260830163315 | 90 | 201 | 5.0 | 12.0 | 0.00 | 0.00 | 0.00 | 56 | 1012.4 |
| 20260830162320 | 89 | 186 | 6.0 | 14.0 | 0.00 | 0.00 | 0.00 | 56 | 1012.5 |
| 20260830161323 | 88 | 212 | 5.0 | 9.0 | 0.00 | 0.00 | 0.00 | 59 | 1012.5 |
| 20260830160340 | 88 | 235 | 4.0 | 11.0 | 0.00 | 0.00 | 0.00 | 58 | 1012.5 |
| 20260830155321 | 88 | 129 | 4.0 | 11.0 | 0.00 | 0.00 | 0.00 | 58 | 1012.5 |
| 20260830154325 | 87 | 187 | 4.0 | 10.0 | 0.00 | 0.00 | 0.00 | 59 | 1012.5 |
| 20260830153323 | 87 | 129 | 5.0 | 10.0 | 0.00 | 0.00 | 0.00 | 58 | 1012.5 |
| 20260830152345 | 86 | 118 | 6.0 | 9.0 | 0.00 | 0.00 | 0.00 | 58 | 1012.5 |
| 20260830151317 | 85 | 123 | 5.0 | 10.0 | 0.00 | 0.00 | 0.00 | 60 | 1012.5 |
| 20260830150317 | 85 | 91 | 5.0 | 9.0 | 0.00 | 0.00 | 0.00 | 63 | 1012.5 |
| 20260830145323 | 84 | 84 | 5.0 | 11.0 | 0.00 | 0.00 | 0.00 | 63 | 1012.5 |
| 20260830144329 | 82 | 181 | 2.0 | 8.0 | 0.00 | 0.00 | 0.00 | 67 | 1012.5 |
| 20260830143325 | 81 | 122 | 3.0 | 5.0 | 0.00 | 0.00 | 0.00 | 66 | 1012.6 |
| 20260830142331 | 81 | 124 | 0.0 | 5.0 | 0.00 | 0.00 | 0.00 | 65 | 1012.6 |
| 20260830141340 | 81 | 118 | 3.0 | 5.0 | 0.00 | 0.00 | 0.00 | 66 | 1012.5 |
| 20260830140315 | 79 | 115 | 2.0 | 6.0 | 0.00 | 0.00 | 0.00 | 70 | 1012.5 |
| 20260830135322 | 77 | 68 | 1.0 | 4.0 | 0.00 | 0.00 | 0.00 | 72 | 1012.4 |
| 20260830134727 | 76 | 104 | 1.0 | 2.0 | 0.00 | 0.00 | 0.00 | 74 | 1012.5 |
| 20260830133328 | 76 | 197 | 0.0 | 2.0 | 0.00 | 0.00 | 0.00 | 75 | 1012.6 |
| 20260830132314 | 76 | 293 | 0.0 | 2.0 | 0.00 | 0.00 | 0.00 | 72 | 1012.9 |
| 20260830131321 | 76 | 289 | 1.0 | 5.0 | 0.00 | 0.00 | 0.00 | 71 | 1012.9 |
| 20260830130320 | 76 | 267 | 2.0 | 6.0 | 0.00 | 0.00 | 0.00 | 70 | 1012.4 |
| 20260830125338 | 76 | 211 | 3.0 | 7.0 | 0.00 | 0.00 | 0.00 | 70 | 1012.2 |
| 20260830124323 | 76 | 212 | 2.0 | 7.0 | 0.00 | 0.00 | 0.00 | 70 | 1012.1 |
| 20260830123320 | 76 | 212 | 1.0 | 7.0 | 0.00 | 0.00 | 0.00 | 71 | 1012.1 |
| 20260830122328 | 76 | 136 | 2.0 | 7.0 | 0.00 | 0.00 | 0.00 | 71 | 1012.0 |
| 20260830121314 | 75 | 215 | 3.0 | 9.0 | 0.00 | 0.00 | 0.00 | 71 | 1011.9 |
| 20260830120957 | 76 | 194 | 2.0 | 8.0 | 0.00 | 0.00 | 0.00 | 71 | 1011.9 |
| 20260830115316 | 77 | 194 | 4.0 | 8.0 | 0.00 | 0.00 | 0.00 | 69 | 1011.9 |
| 20260830114328 | 77 | 200 | 5.0 | 7.0 | 0.00 | 0.00 | 0.00 | 66 | 1011.9 |
| 20260830113325 | 77 | 191 | 4.0 | 10.0 | 0.00 | 0.00 | 0.00 | 67 | 1012.0 |
| 20260830112331 | 77 | 174 | 4.0 | 10.0 | 0.00 | 0.00 | 0.00 | 67 | 1011.9 |
| 20260830111319 | 77 | 215 | 2.0 | 6.0 | 0.00 | 0.00 | 0.00 | 67 | 1011.9 |
| 20260830110337 | 78 | 205 | 3.0 | 6.0 | 0.00 | 0.00 | 0.00 | 66 | 1012.0 |